Tracking 28790 objects as of 19-Apr-2024
HD Live streaming from Space Station
objects crossing your sky now

SL-12 R/B(2)

Track SL-12 R/B(2) now!


NORAD ID: 29673
Int'l Code: 2006-062D
Perigee: 19,047.1 km
Apogee: 19,178.7 km
Inclination: 64.7 °
Period: 674.8 minutes
Semi major axis: 25483 km
RCS: 0.7844 m2 (medium)
Launch date: December 25, 2006
Source: Commonwealth of Independent States (former USSR) (CIS)
Launch site: TYURATAM MISSILE AND SPACE COMPLEX (TTMTR)

Note: This is a ROCKET BODY
Your satellite tracking list
Your tracking list is empty




NASA's NSSDC Master Catalog

Two Line Element Set (TLE):
1 29673U 06062D   24109.69569586 -.00000038  00000-0  00000+0 0  9992
2 29673  64.7082 220.0029 0025814 192.0975 176.1779  2.13404639135160
Source of the keplerian elements: AFSPC